Location: Avon School (historical)
(37.7514°N, 90.2201°W)
Time: 17:18:38
(UTC+00:00)

Transit 2A Rocket - Visible Passes

Search period start: 14 December 2025 00:00
Search period end: 24 December 2025 00:00
Orbit: 580 x 903 km, 66.7° (Epoch: 13 December)

Date Brightness Start Highest point End Pass type
(mag) Time Alt. Az. Time Alt. Az. Time Alt. Az.
14 Dec 7.0 00:15:48 10° NW 00:20:59 33° WSW 00:25:52 10° S visible
14 Dec 5.9 23:29:52 10° NW 23:35:42 60° WSW 23:41:09 10° SSE visible
15 Dec 8.2 12:19:28 10° SSE 12:23:14 19° ESE 12:27:11 10° ENE visible
16 Dec 8.4 00:28:56 10° WNW 00:31:50 14° WSW 00:34:39 10° SW visible
16 Dec 7.6 23:41:56 10° NW 23:46:45 27° WSW 23:51:18 10° SSW visible
17 Dec 6.6 12:29:01 10° S 12:34:09 43° ESE 12:39:41 10° NE visible
18 Dec 7.7 11:44:42 10° SSE 11:48:58 23° ESE 11:53:28 10° NE visible
18 Dec 8.7 23:55:58 10° W 23:57:31 11° W 23:59:04 10° WSW visible
19 Dec 8.5 11:01:55 10° ESE 11:03:55 12° E 11:05:57 10° E visible
19 Dec 5.2 12:39:50 10° SSW 12:45:22 86° WNW 12:51:20 10° NNE visible
19 Dec 8.1 23:08:08 10° NW 23:12:30 22° WSW 23:16:38 10° SSW visible
20 Dec 6.1 11:54:37 10° S 11:59:57 53° ESE 12:05:41 10° NE visible
21 Dec 7.2 11:10:03 10° SSE 11:14:42 28° ESE 11:19:38 10° NE visible
22 Dec 8.0 10:26:33 10° SE 10:29:35 15° ESE 10:32:45 10° ENE visible
22 Dec 5.2 12:05:40 10° SW 12:11:13 73° WNW 12:17:11 10° NNE visible
23 Dec 5.6 11:20:17 10° SSW 11:25:44 64° ESE 11:31:37 10° NE visible
